Weather History for Chester, SC

Change the Weather History Date:

Tuesday, April 1, 2014

  Actual Average (KUZA) Record (KUZA)
Temperature  
Mean Temperature 68 °F -  
Max Temperature 86 °F 72 °F 87 °F (1974)
Min Temperature 50 °F 47 °F 30 °F (1987)
Cooling Degree Days 3    
Growing Degree Days 18 (Base 50)    
Moisture  
Dew Point 35 °F    
Average Humidity 33    
Maximum Humidity 54    
Minimum Humidity 14    
Precipitation  
Precipitation 0.00 in - - ()
Sea Level Pressure  
Sea Level Pressure 30.09 in    
Wind  
Wind Speed 3 mph (SSW)    
Max Wind Speed 8 mph    
Max Gust Speed -    
Visibility 10 miles    
Events      
Averages and records for this station are not official NWS values.
T = Trace of Precipitation, MM = Missing Value Source: NWS Daily Summary

Daily Weather History Graph

Daily Weather History Graph

Search for Another Location

Airport:

Trip Planner

Search our weather history database for the weather conditions in past years. The results will help you decide how hot, cold, wet, or windy it might be!

Date:

Astronomy

Apr. 01, 2014 Rise Set
Actual Time 7:11 AM EDT 7:45 PM EDT
Civil Twilight 6:46 AM EDT 8:11 PM EDT
Nautical Twilight 6:16 AM EDT 8:41 PM EDT
Astronomical Twilight 5:45 AM EDT 9:11 PM EDT
Moon 8:18 AM EDT (4/1) 10:01 PM EDT (4/1)
Length of Visible Light 13h 25m
Length of Day
12h 34m
Waxing Crescent, 4% of the Moon is Illuminated
Apr 1
Waxing Crescent
Apr 7
First Quarter
Apr 15
Full
Apr 22
Last Quarter
Apr 29
New

Hourly Weather History & Observations

Time (EDT) Temp. Dew Point Humidity Pressure Visibility Wind Dir Wind Speed Gust Speed Precip Events Conditions
12:15 AM 55.4 °F 32.0 °F 41% 30.12 in 10.0 mi SSW 3.5 mph - N/A   Clear
12:35 AM 57.2 °F 32.0 °F 38% 30.11 in 10.0 mi South 3.5 mph - N/A   Clear
12:55 AM 55.4 °F 30.2 °F 38% 30.11 in 10.0 mi South 3.5 mph - N/A   Clear
1:15 AM 53.6 °F 33.8 °F 47% 30.11 in 10.0 mi Calm Calm - N/A   Clear
1:35 AM 53.6 °F 35.6 °F 51% 30.10 in 10.0 mi Calm Calm - N/A   Clear
1:55 AM 51.8 °F 32.0 °F 47% 30.10 in 10.0 mi Calm Calm - N/A   Clear
2:15 AM 51.8 °F 33.8 °F 50% 30.10 in 10.0 mi Calm Calm - N/A   Clear
2:35 AM 51.8 °F 32.0 °F 47% 30.09 in 10.0 mi South 3.5 mph - N/A   Clear
2:55 AM 55.4 °F 32.0 °F 41% 30.09 in 10.0 mi SSW 3.5 mph - N/A   Clear
3:15 AM 53.6 °F 32.0 °F 44% 30.10 in 10.0 mi SSW 4.6 mph - N/A   Clear
3:35 AM 55.4 °F 32.0 °F 41% 30.10 in 10.0 mi SSW 3.5 mph - N/A   Clear
3:55 AM 55.4 °F 30.2 °F 38% 30.09 in 10.0 mi SSW 3.5 mph - N/A   Clear
4:15 AM 53.6 °F 32.0 °F 44% 30.09 in 10.0 mi SSW 3.5 mph - N/A   Clear
4:35 AM 55.4 °F 30.2 °F 38% 30.09 in 10.0 mi SSW 3.5 mph - N/A   Clear
4:55 AM 53.6 °F 30.2 °F 41% 30.09 in 10.0 mi South 3.5 mph - N/A   Clear
5:15 AM 51.8 °F 32.0 °F 47% 30.09 in 10.0 mi SSW 4.6 mph - N/A   Clear
5:35 AM 51.8 °F 32.0 °F 47% 30.09 in 10.0 mi South 3.5 mph - N/A   Clear
5:55 AM 50.0 °F 33.8 °F 54% 30.09 in 10.0 mi South 3.5 mph - N/A   Clear
6:15 AM 51.8 °F 32.0 °F 47% 30.10 in 10.0 mi SSW 3.5 mph - N/A   Clear
6:35 AM 51.8 °F 32.0 °F 47% 30.10 in 10.0 mi SSW 3.5 mph - N/A   Clear
6:55 AM 50.0 °F 32.0 °F 50% 30.10 in 10.0 mi SSW 4.6 mph - N/A   Clear
7:15 AM 50.0 °F 32.0 °F 50% 30.11 in 10.0 mi SW 4.6 mph - N/A   Clear
7:35 AM 51.8 °F 32.0 °F 47% 30.12 in 10.0 mi SSW 4.6 mph - N/A   Clear
7:55 AM 55.4 °F 33.8 °F 44% 30.12 in 10.0 mi SW 4.6 mph - N/A   Clear
8:15 AM 55.4 °F 33.8 °F 44% 30.12 in 10.0 mi SW 4.6 mph - N/A   Clear
8:35 AM 57.2 °F 35.6 °F 44% 30.13 in 10.0 mi SW 4.6 mph - N/A   Clear
8:55 AM 59.0 °F 35.6 °F 42% 30.13 in 10.0 mi West 3.5 mph - N/A   Clear
9:15 AM 59.0 °F 37.4 °F 45% 30.14 in 10.0 mi Calm Calm - N/A   Clear
9:35 AM 62.6 °F 37.4 °F 39% 30.14 in 10.0 mi Calm Calm - N/A   Clear
9:55 AM 64.4 °F 39.2 °F 40% 30.15 in 10.0 mi Calm Calm - N/A   Clear
10:15 AM 64.4 °F 39.2 °F 40% 30.15 in 10.0 mi Calm Calm - N/A   Clear
10:35 AM 68.0 °F 39.2 °F 35% 30.15 in 10.0 mi Calm Calm - N/A   Clear
10:55 AM 71.6 °F 39.2 °F 31% 30.15 in 10.0 mi SW 3.5 mph - N/A   Clear
11:15 AM 73.4 °F 35.6 °F 25% 30.15 in 10.0 mi West 4.6 mph - N/A   Clear
11:35 AM 75.2 °F 33.8 °F 22% 30.14 in 10.0 mi SW 6.9 mph - N/A   Clear
11:55 AM 77.0 °F 33.8 °F 21% 30.14 in 10.0 mi West 4.6 mph - N/A   Clear
12:15 PM 75.2 °F 33.8 °F 22% 30.14 in 7.0 mi West 3.5 mph - N/A   Clear
12:35 PM 77.0 °F 32.0 °F 19% 30.13 in 10.0 mi Calm Calm - N/A   Clear
12:55 PM 78.8 °F 32.0 °F 18% 30.12 in 7.0 mi Calm Calm - N/A   Clear
1:15 PM 80.6 °F 32.0 °F 17% 30.11 in 10.0 mi SSE 4.6 mph - N/A   Clear
1:35 PM 80.6 °F 32.0 °F 17% 30.10 in 10.0 mi SSE 4.6 mph - N/A   Clear
1:55 PM 82.4 °F 32.0 °F 16% 30.09 in 10.0 mi SSW 6.9 mph - N/A   Clear
2:15 PM 80.6 °F 30.2 °F 16% 30.08 in 10.0 mi South 4.6 mph - N/A   Clear
2:35 PM 82.4 °F 32.0 °F 16% 30.07 in 10.0 mi WSW 5.8 mph - N/A   Clear
2:55 PM 82.4 °F 32.0 °F 16% 30.06 in 10.0 mi SSW 4.6 mph - N/A   Clear
3:15 PM 82.4 °F 32.0 °F 16% 30.05 in 10.0 mi SW 6.9 mph - N/A   Clear
3:35 PM 82.4 °F 32.0 °F 16% 30.05 in 10.0 mi SSW 5.8 mph - N/A   Clear
3:55 PM 82.4 °F 33.8 °F 17% 30.03 in 10.0 mi South 4.6 mph - N/A   Clear
4:15 PM 86.0 °F 32.0 °F 14% 30.03 in 10.0 mi WSW 4.6 mph - N/A   Clear
4:35 PM 86.0 °F 33.8 °F 15% 30.03 in 10.0 mi SW 6.9 mph - N/A   Clear
4:55 PM 86.0 °F 33.8 °F 15% 30.03 in 10.0 mi Calm Calm - N/A   Clear
5:15 PM 86.0 °F 33.8 °F 15% 30.02 in 10.0 mi WSW 4.6 mph - N/A   Clear
5:35 PM 84.2 °F 33.8 °F 16% 30.03 in 10.0 mi SW 8.1 mph - N/A   Clear
5:55 PM 82.4 °F 33.8 °F 17% 30.03 in 10.0 mi South 4.6 mph - N/A   Clear
6:15 PM 82.4 °F 35.6 °F 19% 30.03 in 10.0 mi SSW 3.5 mph - N/A   Clear
6:35 PM 82.4 °F 35.6 °F 19% 30.03 in 10.0 mi South 3.5 mph - N/A   Clear
6:55 PM 80.6 °F 35.6 °F 20% 30.03 in 10.0 mi South 5.8 mph - N/A   Clear
7:15 PM 78.8 °F 37.4 °F 23% 30.04 in 10.0 mi South 6.9 mph - N/A   Clear
7:35 PM 77.0 °F 37.4 °F 24% 30.04 in 10.0 mi South 4.6 mph - N/A   Clear
7:55 PM 73.4 °F 39.2 °F 29% 30.05 in 10.0 mi South 4.6 mph - N/A   Clear
8:15 PM 73.4 °F 41.0 °F 31% 30.05 in 10.0 mi South 4.6 mph - N/A   Clear
8:35 PM 73.4 °F 41.0 °F 31% 30.06 in 10.0 mi South 5.8 mph - N/A   Clear
8:55 PM 71.6 °F 41.0 °F 33% 30.06 in 10.0 mi South 4.6 mph - N/A   Clear
9:15 PM 68.0 °F 41.0 °F 37% 30.07 in 10.0 mi South 3.5 mph - N/A   Clear
9:35 PM 69.8 °F 41.0 °F 35% 30.07 in 10.0 mi South 3.5 mph - N/A   Clear
9:55 PM 69.8 °F 39.2 °F 33% 30.07 in 10.0 mi South 4.6 mph - N/A   Clear
10:15 PM 69.8 °F 39.2 °F 33% 30.07 in 10.0 mi South 3.5 mph - N/A   Clear
10:35 PM 66.2 °F 39.2 °F 37% 30.08 in 10.0 mi South 3.5 mph - N/A   Clear
10:55 PM 64.4 °F 39.2 °F 40% 30.08 in 10.0 mi Calm Calm - N/A   Clear
11:15 PM 62.6 °F 41.0 °F 45% 30.08 in 10.0 mi SSW 3.5 mph - N/A   Clear
11:35 PM 60.8 °F 42.8 °F 52% 30.08 in 10.0 mi SSW 3.5 mph - N/A   Clear
11:55 PM 60.8 °F 41.0 °F 48% 30.08 in 10.0 mi SSW 3.5 mph - N/A   Clear